Fallon, NV

8:33 PM PST on February 26, 2017 (GMT -0800)
Fallon Naval Air Station

Weather History for KNFL - July, 2013

Change the Weather History Date:

Tuesday, July 30, 2013

  Actual Average Record
Temperature  
Mean Temperature 75 °F -  
Max Temperature 93 °F 92 °F 105 °F (2003)
Min Temperature 57 °F 56 °F 44 °F (1950)
Cooling Degree Days 10    
Growing Degree Days 25 (Base 50)    
Moisture  
Dew Point 31 °F    
Average Humidity 21    
Maximum Humidity 41    
Minimum Humidity 8    
Precipitation  
Precipitation 0.00 in - - ()
Sea Level Pressure  
Sea Level Pressure 30.03 in    
Wind  
Wind Speed 3 mph (North)    
Max Wind Speed 10 mph    
Max Gust Speed 20 mph    
Visibility 10 miles    
Events      
Averages and records for this station are not official NWS values.
T = Trace of Precipitation, MM = Missing Value Source: NWS Daily Summary

Daily Weather History Graph

Daily Weather History Graph

Search for Another Location

Airport or City:

Trip Planner

Search our weather history database for the weather conditions in past years. The results will help you decide how hot, cold, wet, or windy it might be!

Date:

Astronomy

Jul. 30, 2013 Rise Set
Actual Time 5:53 AM PDT 8:08 PM PDT
Civil Twilight 5:22 AM PDT 8:38 PM PDT
Nautical Twilight 4:45 AM PDT 9:15 PM PDT
Astronomical Twilight 4:05 AM PDT 9:56 PM PDT
Moon 12:13 AM PDT (7/30) 2:33 PM PDT (7/30)
Length of Visible Light 15h 15m
Length of Day
14h 15m
Last Quarter, 40% of the Moon is Illuminated
Jul 30
Last Quarter
Aug 6
New
Aug 14
First Quarter
Aug 20
Full
Aug 28
Last Quarter

Hourly Weather History & Observations

Time (PDT) Temp. Dew Point Humidity Pressure Visibility Wind Dir Wind Speed Gust Speed Precip Events Conditions
12:56 AM 66.2 °F 28.4 °F 24% 30.01 in 10.0 mi Calm Calm - N/A   Partly Cloudy
1:56 AM 66.9 °F 36.0 °F 32% 30.01 in 10.0 mi WSW 4.6 mph - N/A   Clear
2:56 AM 62.1 °F 33.1 °F 34% 30.02 in 10.0 mi East 3.5 mph - N/A   Scattered Clouds
3:56 AM 64.0 °F 33.1 °F 31% 30.03 in 10.0 mi Calm Calm - N/A   Clear
4:56 AM 62.1 °F 33.1 °F 34% 30.04 in 10.0 mi Calm Calm - N/A   Clear
5:56 AM 57.0 °F 33.1 °F 40% 30.05 in 10.0 mi SSE 3.5 mph - N/A   Clear
6:14 AM 57.2 °F 33.8 °F 41% 30.16 in 10.0 mi South 3.5 mph - N/A   Mostly Cloudy
6:56 AM 62.6 °F 33.8 °F 34% 30.07 in 10.0 mi South 3.5 mph - N/A   Mostly Cloudy
7:56 AM 69.8 °F 33.8 °F 27% 30.08 in 10.0 mi South 3.5 mph - N/A   Mostly Cloudy
8:56 AM 75.2 °F 35.6 °F 24% 30.08 in 10.0 mi Variable 3.5 mph - N/A   Mostly Cloudy
9:56 AM 80.6 °F 35.6 °F 20% 30.08 in 10.0 mi Calm Calm - N/A   Scattered Clouds
10:56 AM 82.4 °F 37.4 °F 20% 30.08 in 10.0 mi Calm Calm - N/A   Mostly Cloudy
11:56 AM 84.2 °F 33.8 °F 16% 30.06 in 10.0 mi East 3.5 mph - N/A   Overcast
12:56 PM 87.8 °F 33.8 °F 15% 30.05 in 10.0 mi Variable 3.5 mph - N/A   Mostly Cloudy
1:56 PM 91.0 °F 32.0 °F 12% 30.03 in 10.0 mi Variable 6.9 mph 19.6 mph N/A   Scattered Clouds
2:56 PM 91.9 °F 27.0 °F 10% 30.01 in 10.0 mi SSE 6.9 mph - N/A   Scattered Clouds
3:56 PM 91.9 °F 25.0 °F 9% 29.99 in 10.0 mi Calm Calm - N/A   Scattered Clouds
4:56 PM 93.9 °F 26.1 °F 9% 29.97 in 10.0 mi NW 10.4 mph - N/A   Scattered Clouds
5:56 PM 91.9 °F 25.0 °F 9% 29.96 in 10.0 mi NNW 6.9 mph - N/A   Scattered Clouds
6:56 PM 93.0 °F 24.1 °F 8% 29.95 in 10.0 mi North 8.1 mph - N/A   Scattered Clouds
7:56 PM 87.1 °F 28.9 °F 12% 29.96 in 10.0 mi NNW 3.5 mph - N/A   Mostly Cloudy
8:56 PM 82.9 °F 28.9 °F 14% 29.97 in 10.0 mi NNW 6.9 mph - N/A   Mostly Cloudy
9:56 PM 79.0 °F 28.0 °F 15% 29.99 in 10.0 mi NNW 8.1 mph - N/A   Scattered Clouds
10:56 PM 81.0 °F 30.0 °F 16% 30.01 in 10.0 mi WNW 9.2 mph - N/A   Scattered Clouds
11:56 PM 75.9 °F 30.9 °F 19% 30.03 in 10.0 mi ENE 3.5 mph - N/A   Clear